Вернуться в каталог

FENGYUN 1C DEB

АктивенSSO
NORAD 31350·DEBRIS·🇨🇳 China

Запущен May 10, 1999 с Taiyuan Satellite Launch Center

Loading…

Ближайшие Пролёты (ближайшие 24 часа)

TLE

УстаревающийSource: Space-Track

Эпоха: Sep 4, 2026, 18:08 UTC

1 31350U 99025BRE 26247.75559176  .00000545  00000-0  20071-3 0  9990
2 31350  98.9728  75.1227 0066873  66.2096 294.6081 14.35529950740699

Отслеживайте FENGYUN 1C DEB в реальном времени с AllMySat

Download on the App Store